Time,TemperatureF,DewpointF,PressureIn,WindDirection,WindDirectionDegrees,WindSpeedMPH,WindSpeedGustMPH,Humidity,HourlyPrecipIn,Conditions,Clouds,dailyrainin,SoftwareType,DateUTC
2013-09-14 00:01:00,53.2,35.5,30.14,ENE,67,0.0,0.0,51,0.00,,,0.00,WUHU21623XXSP,2013-09-14 05:01:00,
2013-09-14 00:06:00,53.2,35.5,30.14,ENE,67,0.4,0.4,51,0.00,,,0.00,WUHU21623XXSP,2013-09-14 05:06:00,
2013-09-14 00:11:00,53.1,35.9,30.14,East,90,0.0,1.8,52,0.00,,,0.00,WUHU21623XXSP,2013-09-14 05:11:00,
2013-09-14 00:16:00,52.9,36.1,30.14,ENE,67,1.6,1.8,53,0.00,,,0.00,WUHU21623XXSP,2013-09-14 05:16:00,
2013-09-14 00:21:00,52.9,36.1,30.14,SE,135,0.0,1.6,53,0.00,,,0.00,WUHU21623XXSP,2013-09-14 05:21:00,
2013-09-14 00:26:00,52.7,36.9,30.14,East,90,0.0,1.3,55,0.00,,,0.00,WUHU21623XXSP,2013-09-14 05:26:00,
2013-09-14 00:31:00,52.7,36.9,30.14,SE,135,0.0,1.3,55,0.00,,,0.00,WUHU21623XXSP,2013-09-14 05:31:00,
2013-09-14 00:36:00,52.7,37.4,30.14,ENE,67,4.0,4.0,56,0.00,,,0.00,WUHU21623XXSP,2013-09-14 05:36:00,
2013-09-14 00:41:00,52.7,37.8,30.14,ENE,67,1.1,4.0,57,0.00,,,0.00,WUHU21623XXSP,2013-09-14 05:41:00,
2013-09-14 00:46:00,52.7,38.3,30.14,SE,135,0.0,1.1,58,0.00,,,0.00,WUHU21623XXSP,2013-09-14 05:46:00,
2013-09-14 00:51:00,52.5,38.6,30.14,ENE,67,1.6,1.6,59,0.00,,,0.00,WUHU21623XXSP,2013-09-14 05:51:00,
2013-09-14 00:56:00,52.5,39.0,30.14,ESE,112,0.0,1.6,60,0.00,,,0.00,WUHU21623XXSP,2013-09-14 05:56:00,
2013-09-14 01:01:00,52.5,39.0,30.14,SSE,157,0.0,0.0,60,0.00,,,0.00,WUHU21623XXSP,2013-09-14 06:01:00,
2013-09-14 01:06:00,52.5,39.0,30.14,SSE,157,0.0,0.0,60,0.00,,,0.00,WUHU21623XXSP,2013-09-14 06:06:00,
2013-09-14 01:11:00,52.2,39.1,30.14,ESE,112,0.0,0.0,61,0.00,,,0.00,WUHU21623XXSP,2013-09-14 06:11:00,
2013-09-14 01:16:00,52.2,39.5,30.14,ESE,112,0.0,0.0,62,0.00,,,0.00,WUHU21623XXSP,2013-09-14 06:16:00,
2013-09-14 01:21:00,52.0,39.3,30.14,SSE,157,0.0,0.0,62,0.00,,,0.00,WUHU21623XXSP,2013-09-14 06:21:00,
2013-09-14 01:26:00,52.0,39.3,30.14,SSE,157,0.0,0.0,62,0.00,,,0.00,WUHU21623XXSP,2013-09-14 06:26:00,
2013-09-14 01:31:00,51.8,39.1,30.14,SSE,157,0.0,0.0,62,0.00,,,0.00,WUHU21623XXSP,2013-09-14 06:31:00,
2013-09-14 01:36:00,51.4,39.4,30.14,SSE,157,0.0,0.0,63,0.00,,,0.00,WUHU21623XXSP,2013-09-14 06:36:00,
2013-09-14 01:41:00,51.4,39.2,30.14,SSE,157,0.0,0.0,63,0.00,,,0.00,WUHU21623XXSP,2013-09-14 06:41:00,
2013-09-14 01:46:00,51.4,39.2,30.14,SSE,157,0.0,0.0,63,0.00,,,0.00,WUHU21623XXSP,2013-09-14 06:46:00,
2013-09-14 01:51:00,51.4,39.6,30.14,ESE,112,0.0,0.0,64,0.00,,,0.00,WUHU21623XXSP,2013-09-14 06:51:00,
2013-09-14 01:56:00,51.4,39.6,30.14,ESE,112,0.0,0.0,64,0.00,,,0.00,WUHU21623XXSP,2013-09-14 06:56:00,
2013-09-14 02:01:00,51.3,39.4,30.14,ESE,112,0.0,0.0,64,0.00,,,0.00,WUHU21623XXSP,2013-09-14 07:01:00,
2013-09-14 02:06:00,51.4,40.0,30.14,ESE,112,0.0,0.0,65,0.00,,,0.00,WUHU21623XXSP,2013-09-14 07:06:00,
2013-09-14 02:11:00,51.3,39.8,30.14,ESE,112,0.0,0.0,65,0.00,,,0.00,WUHU21623XXSP,2013-09-14 07:11:00,
2013-09-14 02:16:00,51.3,39.8,30.14,ESE,112,0.0,0.0,65,0.00,,,0.00,WUHU21623XXSP,2013-09-14 07:16:00,
2013-09-14 02:21:00,51.1,39.7,30.14,SE,135,0.0,0.0,65,0.00,,,0.00,WUHU21623XXSP,2013-09-14 07:21:00,
2013-09-14 02:26:00,50.9,39.5,30.14,SE,135,0.0,0.0,65,0.00,,,0.00,WUHU21623XXSP,2013-09-14 07:26:00,
2013-09-14 02:31:00,50.9,39.5,30.14,SE,135,0.0,0.0,65,0.00,,,0.00,WUHU21623XXSP,2013-09-14 07:31:00,
2013-09-14 02:36:00,50.7,39.7,30.14,SE,135,0.0,0.0,66,0.00,,,0.00,WUHU21623XXSP,2013-09-14 07:36:00,
2013-09-14 02:41:00,50.7,39.7,30.14,SE,135,0.0,0.0,66,0.00,,,0.00,WUHU21623XXSP,2013-09-14 07:41:00,
2013-09-14 02:46:00,50.5,39.6,30.14,SE,135,0.0,0.0,66,0.00,,,0.00,WUHU21623XXSP,2013-09-14 07:46:00,
2013-09-14 02:51:00,50.4,39.8,30.13,SE,135,0.0,0.0,67,0.00,,,0.00,WUHU21623XXSP,2013-09-14 07:51:00,
2013-09-14 02:56:00,50.4,39.8,30.13,SE,135,0.0,0.0,67,0.00,,,0.00,WUHU21623XXSP,2013-09-14 07:56:00,
2013-09-14 03:01:00,50.4,39.8,30.13,SE,135,0.0,0.0,67,0.00,,,0.00,WUHU21623XXSP,2013-09-14 08:01:00,
2013-09-14 03:06:00,50.4,39.8,30.14,SE,135,0.0,0.0,67,0.00,,,0.00,WUHU21623XXSP,2013-09-14 08:06:00,
2013-09-14 03:11:00,50.4,40.2,30.13,SE,135,0.0,0.0,68,0.00,,,0.00,WUHU21623XXSP,2013-09-14 08:11:00,
2013-09-14 03:16:00,50.4,40.2,30.14,SE,135,0.0,0.0,68,0.00,,,0.00,WUHU21623XXSP,2013-09-14 08:16:00,
2013-09-14 03:21:00,50.4,40.2,30.14,SE,135,0.0,0.0,68,0.00,,,0.00,WUHU21623XXSP,2013-09-14 08:21:00,
2013-09-14 03:26:00,50.4,40.2,30.14,SE,135,0.0,0.0,68,0.00,,,0.00,WUHU21623XXSP,2013-09-14 08:26:00,
2013-09-14 03:31:00,50.4,40.2,30.14,SE,135,0.0,0.0,68,0.00,,,0.00,WUHU21623XXSP,2013-09-14 08:31:00,
2013-09-14 03:36:00,50.4,40.6,30.14,SE,135,0.0,0.0,69,0.00,,,0.00,WUHU21623XXSP,2013-09-14 08:36:00,
2013-09-14 03:41:00,50.4,40.6,30.14,SE,135,0.0,0.0,69,0.00,,,0.00,WUHU21623XXSP,2013-09-14 08:41:00,
2013-09-14 03:46:00,50.4,40.6,30.14,SE,135,0.0,0.0,69,0.00,,,0.00,WUHU21623XXSP,2013-09-14 08:46:00,
2013-09-14 03:51:00,50.4,40.6,30.14,SE,135,0.0,0.0,69,0.00,,,0.00,WUHU21623XXSP,2013-09-14 08:51:00,
2013-09-14 03:56:00,50.4,40.6,30.14,SE,135,0.0,0.0,69,0.00,,,0.00,WUHU21623XXSP,2013-09-14 08:56:00,
2013-09-14 04:01:00,50.4,40.6,30.13,SE,135,0.0,0.0,69,0.00,,,0.00,WUHU21623XXSP,2013-09-14 09:01:00,
2013-09-14 04:06:00,50.4,40.6,30.13,SE,135,0.0,0.0,69,0.00,,,0.00,WUHU21623XXSP,2013-09-14 09:06:00,
2013-09-14 04:11:00,50.4,40.6,30.14,SE,135,0.0,0.0,69,0.00,,,0.00,WUHU21623XXSP,2013-09-14 09:11:00,
2013-09-14 04:16:00,50.4,41.0,30.14,SE,135,0.0,0.0,70,0.00,,,0.00,WUHU21623XXSP,2013-09-14 09:16:00,
2013-09-14 04:21:00,50.4,41.0,30.14,SE,135,0.0,0.0,70,0.00,,,0.00,WUHU21623XXSP,2013-09-14 09:21:00,
2013-09-14 04:26:00,50.4,41.0,30.14,SE,135,0.0,0.0,70,0.00,,,0.00,WUHU21623XXSP,2013-09-14 09:26:00,
2013-09-14 04:31:00,50.4,41.0,30.14,SE,135,0.0,0.0,70,0.00,,,0.00,WUHU21623XXSP,2013-09-14 09:31:00,
2013-09-14 04:36:00,50.2,40.8,30.15,SE,135,0.0,0.0,70,0.00,,,0.00,WUHU21623XXSP,2013-09-14 09:36:00,
2013-09-14 04:41:00,50.2,40.8,30.15,SE,135,0.0,0.0,70,0.00,,,0.00,WUHU21623XXSP,2013-09-14 09:41:00,
2013-09-14 04:46:00,50.0,41.0,30.14,SE,135,0.0,0.0,71,0.00,,,0.00,WUHU21623XXSP,2013-09-14 09:46:00,
2013-09-14 04:51:00,49.8,40.8,30.15,SE,135,0.0,0.0,71,0.00,,,0.00,WUHU21623XXSP,2013-09-14 09:51:00,
2013-09-14 04:56:00,49.6,40.6,30.15,SE,135,0.0,0.0,71,0.00,,,0.00,WUHU21623XXSP,2013-09-14 09:56:00,
2013-09-14 05:01:00,49.6,40.6,30.15,SE,135,0.0,0.0,71,0.00,,,0.00,WUHU21623XXSP,2013-09-14 10:01:00,
2013-09-14 05:06:00,49.5,40.8,30.15,SE,135,0.0,0.0,72,0.00,,,0.00,WUHU21623XXSP,2013-09-14 10:06:00,
2013-09-14 05:11:00,49.3,40.6,30.15,SE,135,0.0,0.0,72,0.00,,,0.00,WUHU21623XXSP,2013-09-14 10:11:00,
2013-09-14 05:16:00,49.1,40.4,30.15,SE,135,0.0,0.0,72,0.00,,,0.00,WUHU21623XXSP,2013-09-14 10:16:00,
2013-09-14 05:21:00,48.9,40.2,30.16,SE,135,0.0,0.0,72,0.00,,,0.00,WUHU21623XXSP,2013-09-14 10:21:00,
2013-09-14 05:26:00,48.9,40.6,30.15,SE,135,0.0,0.0,73,0.00,,,0.00,WUHU21623XXSP,2013-09-14 10:26:00,
2013-09-14 05:31:00,48.7,40.4,30.15,SE,135,0.0,0.0,73,0.00,,,0.00,WUHU21623XXSP,2013-09-14 10:31:00,
2013-09-14 05:36:00,48.6,40.2,30.14,SE,135,0.0,0.0,73,0.00,,,0.00,WUHU21623XXSP,2013-09-14 10:36:00,
2013-09-14 05:41:00,48.4,40.0,30.15,SE,135,0.0,0.0,73,0.00,,,0.00,WUHU21623XXSP,2013-09-14 10:41:00,
2013-09-14 05:46:00,48.4,40.0,30.15,SE,135,0.0,0.0,73,0.00,,,0.00,WUHU21623XXSP,2013-09-14 10:46:00,
2013-09-14 05:51:00,48.2,39.9,30.16,SE,135,0.0,0.0,73,0.00,,,0.00,WUHU21623XXSP,2013-09-14 10:51:00,
2013-09-14 05:56:00,48.4,40.0,30.16,SE,135,0.0,0.0,73,0.00,,,0.00,WUHU21623XXSP,2013-09-14 10:56:00,
2013-09-14 06:01:00,48.2,39.9,30.16,SE,135,0.0,0.0,73,0.00,,,0.00,WUHU21623XXSP,2013-09-14 11:01:00,
2013-09-14 06:06:00,48.2,39.9,30.15,SE,135,0.0,0.0,73,0.00,,,0.00,WUHU21623XXSP,2013-09-14 11:06:00,
2013-09-14 06:11:00,48.2,39.9,30.15,SE,135,0.0,0.0,73,0.00,,,0.00,WUHU21623XXSP,2013-09-14 11:11:00,
2013-09-14 06:16:00,47.8,39.5,30.15,SE,135,0.0,0.0,73,0.00,,,0.00,WUHU21623XXSP,2013-09-14 11:16:00,
2013-09-14 06:21:00,47.7,39.4,30.15,SE,135,0.0,0.0,73,0.00,,,0.00,WUHU21623XXSP,2013-09-14 11:21:00,
2013-09-14 06:26:00,47.7,39.0,30.15,SE,135,0.0,0.0,72,0.00,,,0.00,WUHU21623XXSP,2013-09-14 11:26:00,
2013-09-14 06:31:00,47.7,39.0,30.15,SE,135,0.0,0.0,72,0.00,,,0.00,WUHU21623XXSP,2013-09-14 11:31:00,
2013-09-14 06:36:00,47.5,38.9,30.14,SE,135,0.0,0.0,72,0.00,,,0.00,WUHU21623XXSP,2013-09-14 11:36:00,
2013-09-14 06:41:00,47.3,38.7,30.15,SE,135,0.0,0.0,73,0.00,,,0.00,WUHU21623XXSP,2013-09-14 11:41:00,
2013-09-14 06:46:00,47.3,39.1,30.15,SE,135,0.0,0.0,73,0.00,,,0.00,WUHU21623XXSP,2013-09-14 11:46:00,
2013-09-14 06:51:00,47.3,39.1,30.15,SE,135,0.0,0.0,73,0.00,,,0.00,WUHU21623XXSP,2013-09-14 11:51:00,
2013-09-14 06:56:00,47.5,39.2,30.15,SE,135,0.0,0.0,73,0.00,,,0.00,WUHU21623XXSP,2013-09-14 11:56:00,
2013-09-14 07:01:00,47.5,39.2,30.15,SE,135,0.0,0.0,73,0.00,,,0.00,WUHU21623XXSP,2013-09-14 12:01:00,
2013-09-14 07:06:00,47.5,39.2,30.15,SE,135,0.0,0.0,73,0.00,,,0.00,WUHU21623XXSP,2013-09-14 12:06:00,
2013-09-14 07:11:00,47.7,39.7,30.16,SE,135,0.0,0.0,74,0.00,,,0.00,WUHU21623XXSP,2013-09-14 12:11:00,
2013-09-14 07:16:00,47.8,39.9,30.16,SE,135,0.0,0.0,74,0.00,,,0.00,WUHU21623XXSP,2013-09-14 12:16:00,
2013-09-14 07:21:00,48.0,40.0,30.16,SE,135,0.0,0.0,74,0.00,,,0.00,WUHU21623XXSP,2013-09-14 12:21:00,
2013-09-14 07:26:00,48.6,40.9,30.16,SE,135,0.0,0.0,75,0.00,,,0.00,WUHU21623XXSP,2013-09-14 12:26:00,
2013-09-14 07:31:00,49.3,42.0,30.16,SE,135,0.0,0.0,76,0.00,,,0.00,WUHU21623XXSP,2013-09-14 12:31:00,
2013-09-14 07:36:00,50.2,42.9,30.16,SE,135,0.0,0.0,76,0.00,,,0.00,WUHU21623XXSP,2013-09-14 12:36:00,
2013-09-14 07:41:00,50.7,43.4,30.16,SE,135,0.0,0.0,76,0.00,,,0.00,WUHU21623XXSP,2013-09-14 12:41:00,
2013-09-14 07:46:00,50.9,43.6,30.16,SE,135,0.0,0.0,76,0.00,,,0.00,WUHU21623XXSP,2013-09-14 12:46:00,
2013-09-14 07:51:00,50.9,43.3,30.16,South,180,0.0,0.0,75,0.00,,,0.00,WUHU21623XXSP,2013-09-14 12:51:00,
2013-09-14 07:56:00,51.3,43.6,30.16,South,180,0.0,0.0,75,0.00,,,0.00,WUHU21623XXSP,2013-09-14 12:56:00,
2013-09-14 08:01:00,51.4,43.8,30.17,SSE,157,0.0,0.0,75,0.00,,,0.00,WUHU21623XXSP,2013-09-14 13:01:00,
2013-09-14 08:06:00,51.6,44.0,30.17,South,180,0.0,0.0,75,0.00,,,0.00,WUHU21623XXSP,2013-09-14 13:06:00,
2013-09-14 08:11:00,52.0,44.0,30.17,South,180,0.0,0.0,74,0.00,,,0.00,WUHU21623XXSP,2013-09-14 13:11:00,
2013-09-14 08:16:00,52.2,44.1,30.17,SSE,157,0.0,0.0,74,0.00,,,0.00,WUHU21623XXSP,2013-09-14 13:16:00,
2013-09-14 08:21:00,52.3,44.3,30.17,SSE,157,0.0,0.0,74,0.00,,,0.00,WUHU21623XXSP,2013-09-14 13:21:00,
2013-09-14 08:26:00,52.5,44.5,30.17,SW,225,0.0,0.0,74,0.00,,,0.00,WUHU21623XXSP,2013-09-14 13:26:00,
2013-09-14 08:31:00,52.5,44.5,30.17,SW,225,0.0,0.0,74,0.00,,,0.00,WUHU21623XXSP,2013-09-14 13:31:00,
2013-09-14 08:36:00,52.7,44.0,30.17,SSW,202,0.0,0.0,72,0.00,,,0.00,WUHU21623XXSP,2013-09-14 13:36:00,
2013-09-14 08:41:00,52.9,44.5,30.17,SSW,202,0.0,0.0,73,0.00,,,0.00,WUHU21623XXSP,2013-09-14 13:41:00,
2013-09-14 08:46:00,53.1,44.6,30.17,SSW,202,0.0,0.0,73,0.00,,,0.00,WUHU21623XXSP,2013-09-14 13:46:00,
2013-09-14 08:51:00,53.4,45.0,30.17,SSW,202,0.0,0.0,73,0.00,,,0.00,WUHU21623XXSP,2013-09-14 13:51:00,
2013-09-14 08:56:00,54.0,45.5,30.17,South,180,0.0,0.0,73,0.00,,,0.00,WUHU21623XXSP,2013-09-14 13:56:00,
2013-09-14 09:01:00,54.3,45.8,30.17,SSE,157,0.0,0.0,73,0.00,,,0.00,WUHU21623XXSP,2013-09-14 14:01:00,
2013-09-14 09:06:00,54.9,46.3,30.17,SSW,202,0.0,0.0,73,0.00,,,0.00,WUHU21623XXSP,2013-09-14 14:06:00,
2013-09-14 09:11:00,55.4,46.5,30.17,SSW,202,0.0,0.0,72,0.00,,,0.00,WUHU21623XXSP,2013-09-14 14:11:00,
2013-09-14 09:16:00,55.8,46.5,30.17,SSW,202,0.0,0.0,71,0.00,,,0.00,WUHU21623XXSP,2013-09-14 14:16:00,
2013-09-14 09:21:00,56.1,46.5,30.17,SW,225,0.0,0.2,70,0.00,,,0.00,WUHU21623XXSP,2013-09-14 14:21:00,
2013-09-14 09:26:00,56.3,45.9,30.17,SSE,157,0.0,0.2,68,0.00,,,0.00,WUHU21623XXSP,2013-09-14 14:26:00,
2013-09-14 09:31:00,56.7,46.2,30.17,SSE,157,0.0,0.0,68,0.00,,,0.00,WUHU21623XXSP,2013-09-14 14:31:00,
2013-09-14 09:36:00,57.0,46.1,30.17,SSE,157,0.0,0.0,67,0.00,,,0.00,WUHU21623XXSP,2013-09-14 14:36:00,
2013-09-14 09:41:00,57.4,46.1,30.17,South,180,0.0,0.0,66,0.00,,,0.00,WUHU21623XXSP,2013-09-14 14:41:00,
2013-09-14 09:46:00,57.6,46.2,30.17,SW,225,0.0,0.0,66,0.00,,,0.00,WUHU21623XXSP,2013-09-14 14:46:00,
2013-09-14 09:51:00,57.9,46.2,30.17,SSE,157,0.0,0.0,65,0.00,,,0.00,WUHU21623XXSP,2013-09-14 14:51:00,
2013-09-14 09:56:00,58.3,46.1,30.17,East,90,0.0,2.0,64,0.00,,,0.00,WUHU21623XXSP,2013-09-14 14:56:00,
2013-09-14 10:01:00,58.5,46.3,30.17,SW,225,0.0,2.0,64,0.00,,,0.00,WUHU21623XXSP,2013-09-14 15:01:00,
2013-09-14 10:06:00,59.0,46.4,30.17,SE,135,0.4,1.3,63,0.00,,,0.00,WUHU21623XXSP,2013-09-14 15:06:00,
2013-09-14 10:11:00,59.4,46.3,30.17,SSE,157,2.9,2.9,62,0.00,,,0.00,WUHU21623XXSP,2013-09-14 15:11:00,
2013-09-14 10:16:00,59.5,46.1,30.17,South,180,0.0,2.9,61,0.00,,,0.00,WUHU21623XXSP,2013-09-14 15:16:00,
2013-09-14 10:21:00,60.1,45.7,30.17,South,180,0.0,0.0,59,0.00,,,0.00,WUHU21623XXSP,2013-09-14 15:21:00,
2013-09-14 10:26:00,60.3,45.9,30.17,SE,135,0.4,0.4,59,0.00,,,0.00,WUHU21623XXSP,2013-09-14 15:26:00,
2013-09-14 10:31:00,60.8,45.5,30.17,ESE,112,1.3,2.5,57,0.00,,,0.00,WUHU21623XXSP,2013-09-14 15:31:00,
2013-09-14 10:36:00,61.0,45.2,30.17,South,180,0.0,2.5,56,0.00,,,0.00,WUHU21623XXSP,2013-09-14 15:36:00,
2013-09-14 10:41:00,61.5,45.6,30.16,SSE,157,1.6,1.6,56,0.00,,,0.00,WUHU21623XXSP,2013-09-14 15:41:00,
2013-09-14 10:46:00,61.7,45.3,30.16,South,180,0.0,2.7,55,0.00,,,0.00,WUHU21623XXSP,2013-09-14 15:46:00,
2013-09-14 10:51:00,62.1,44.7,30.16,South,180,0.0,2.7,53,0.00,,,0.00,WUHU21623XXSP,2013-09-14 15:51:00,
2013-09-14 10:56:00,62.2,44.3,30.16,NW,315,0.0,0.0,52,0.00,,,0.00,WUHU21623XXSP,2013-09-14 15:56:00,
2013-09-14 11:01:00,62.4,44.5,30.16,SSW,202,0.0,0.0,52,0.00,,,0.00,WUHU21623XXSP,2013-09-14 16:01:00,
2013-09-14 11:06:00,63.0,44.3,30.16,South,180,0.0,0.4,51,0.00,,,0.00,WUHU21623XXSP,2013-09-14 16:06:00,
2013-09-14 11:11:00,63.1,44.7,30.16,NNW,337,0.0,0.4,51,0.00,,,0.00,WUHU21623XXSP,2013-09-14 16:11:00,
2013-09-14 11:16:00,63.5,43.9,30.15,South,180,2.5,2.5,49,0.00,,,0.00,WUHU21623XXSP,2013-09-14 16:16:00,
2013-09-14 11:21:00,63.9,43.7,30.15,SE,135,0.0,2.5,48,0.00,,,0.00,WUHU21623XXSP,2013-09-14 16:21:00,
2013-09-14 11:26:00,63.9,43.1,30.15,WSW,247,0.0,2.5,47,0.00,,,0.00,WUHU21623XXSP,2013-09-14 16:26:00,
2013-09-14 11:31:00,63.9,43.1,30.15,SSW,202,0.0,0.0,47,0.00,,,0.00,WUHU21623XXSP,2013-09-14 16:31:00,
2013-09-14 11:36:00,64.2,43.4,30.15,West,270,0.0,1.3,47,0.00,,,0.00,WUHU21623XXSP,2013-09-14 16:36:00,
2013-09-14 11:41:00,64.6,43.8,30.15,WSW,247,4.5,4.5,47,0.00,,,0.00,WUHU21623XXSP,2013-09-14 16:41:00,
2013-09-14 11:46:00,64.8,42.8,30.14,SSW,202,0.0,4.5,45,0.00,,,0.00,WUHU21623XXSP,2013-09-14 16:46:00,
2013-09-14 11:51:00,65.1,43.1,30.14,SSW,202,0.0,0.0,45,0.00,,,0.00,WUHU21623XXSP,2013-09-14 16:51:00,
2013-09-14 11:56:00,65.3,42.7,30.14,SW,225,2.2,2.5,44,0.00,,,0.00,WUHU21623XXSP,2013-09-14 16:56:00,
2013-09-14 12:01:00,65.7,42.5,30.14,SSE,157,2.2,2.5,43,0.00,,,0.00,WUHU21623XXSP,2013-09-14 17:01:00,
2013-09-14 12:06:00,65.8,42.6,30.14,SSE,157,0.0,2.2,43,0.00,,,0.00,WUHU21623XXSP,2013-09-14 17:06:00,
2013-09-14 12:11:00,66.2,43.0,30.14,SSE,157,0.0,0.0,43,0.00,,,0.00,WUHU21623XXSP,2013-09-14 17:11:00,
2013-09-14 12:16:00,66.7,42.3,30.14,SSW,202,0.0,0.0,41,0.00,,,0.00,WUHU21623XXSP,2013-09-14 17:16:00,
2013-09-14 12:21:00,67.1,42.6,30.13,SW,225,0.0,0.0,41,0.00,,,0.00,WUHU21623XXSP,2013-09-14 17:21:00,
2013-09-14 12:26:00,67.3,41.4,30.13,NW,315,0.0,0.0,39,0.00,,,0.00,WUHU21623XXSP,2013-09-14 17:26:00,
2013-09-14 12:31:00,67.8,42.6,30.13,WNW,292,0.0,0.0,40,0.00,,,0.00,WUHU21623XXSP,2013-09-14 17:31:00,
2013-09-14 12:36:00,68.2,42.2,30.13,South,180,0.0,0.0,39,0.00,,,0.00,WUHU21623XXSP,2013-09-14 17:36:00,
2013-09-14 12:41:00,68.2,42.2,30.13,NW,315,0.0,0.0,39,0.00,,,0.00,WUHU21623XXSP,2013-09-14 17:41:00,
2013-09-14 12:46:00,68.4,42.4,30.12,South,180,0.0,0.0,39,0.00,,,0.00,WUHU21623XXSP,2013-09-14 17:46:00,
2013-09-14 12:51:00,68.4,42.4,30.12,SSW,202,0.0,0.0,39,0.00,,,0.00,WUHU21623XXSP,2013-09-14 17:51:00,
2013-09-14 12:56:00,68.4,41.6,30.12,SSW,202,0.0,1.1,38,0.00,,,0.00,WUHU21623XXSP,2013-09-14 17:56:00,
2013-09-14 13:01:00,68.7,41.2,30.12,SE,135,0.0,1.1,37,0.00,,,0.00,WUHU21623XXSP,2013-09-14 18:01:00,
2013-09-14 13:06:00,68.9,42.1,30.12,SSE,157,0.0,0.7,38,0.00,,,0.00,WUHU21623XXSP,2013-09-14 18:06:00,
2013-09-14 13:11:00,69.1,40.8,30.12,SSE,157,1.8,1.8,36,0.00,,,0.00,WUHU21623XXSP,2013-09-14 18:11:00,
2013-09-14 13:16:00,69.3,41.0,30.11,NNE,22,0.0,1.8,36,0.00,,,0.00,WUHU21623XXSP,2013-09-14 18:16:00,
2013-09-14 13:21:00,69.4,40.4,30.11,SE,135,0.9,1.1,35,0.00,,,0.00,WUHU21623XXSP,2013-09-14 18:21:00,
2013-09-14 13:26:00,69.4,39.7,30.11,SSE,157,0.0,0.9,34,0.00,,,0.00,WUHU21623XXSP,2013-09-14 18:26:00,
2013-09-14 13:31:00,69.6,40.6,30.11,ESE,112,0.0,1.8,35,0.00,,,0.00,WUHU21623XXSP,2013-09-14 18:31:00,
2013-09-14 13:36:00,69.6,40.6,30.10,SSW,202,0.0,1.8,35,0.00,,,0.00,WUHU21623XXSP,2013-09-14 18:36:00,
2013-09-14 13:41:00,69.6,39.8,30.10,East,90,0.0,2.0,34,0.00,,,0.00,WUHU21623XXSP,2013-09-14 18:41:00,
2013-09-14 13:46:00,69.6,39.8,30.09,SSE,157,0.0,2.0,34,0.00,,,0.00,WUHU21623XXSP,2013-09-14 18:46:00,
2013-09-14 13:51:00,69.6,39.8,30.09,WSW,247,0.0,0.0,34,0.00,,,0.00,WUHU21623XXSP,2013-09-14 18:51:00,
2013-09-14 13:56:00,69.8,40.7,30.09,SSE,157,0.0,0.0,35,0.00,,,0.00,WUHU21623XXSP,2013-09-14 18:56:00,
2013-09-14 14:01:00,70.2,40.3,30.09,South,180,0.0,0.0,34,0.00,,,0.00,WUHU21623XXSP,2013-09-14 19:01:00,
2013-09-14 14:06:00,70.2,40.3,30.08,WNW,292,1.1,1.3,34,0.00,,,0.00,WUHU21623XXSP,2013-09-14 19:06:00,
2013-09-14 14:11:00,70.3,40.5,30.08,East,90,0.0,1.3,34,0.00,,,0.00,WUHU21623XXSP,2013-09-14 19:11:00,
2013-09-14 14:16:00,70.7,40.8,30.08,SE,135,0.0,0.0,34,0.00,,,0.00,WUHU21623XXSP,2013-09-14 19:16:00,
2013-09-14 14:21:00,70.7,39.3,30.08,SE,135,0.0,0.0,32,0.00,,,0.00,WUHU21623XXSP,2013-09-14 19:21:00,
2013-09-14 14:26:00,70.7,39.3,30.07,SSE,157,0.0,0.0,32,0.00,,,0.00,WUHU21623XXSP,2013-09-14 19:26:00,
2013-09-14 14:31:00,70.7,38.6,30.07,ESE,112,0.0,3.1,31,0.00,,,0.00,WUHU21623XXSP,2013-09-14 19:31:00,
2013-09-14 14:36:00,70.7,38.6,30.07,South,180,0.0,3.1,31,0.00,,,0.00,WUHU21623XXSP,2013-09-14 19:36:00,
2013-09-14 14:41:00,70.9,38.0,30.07,SSW,202,0.0,0.7,30,0.00,,,0.00,WUHU21623XXSP,2013-09-14 19:41:00,
2013-09-14 14:46:00,70.9,38.0,30.07,SSW,202,0.0,0.0,30,0.00,,,0.00,WUHU21623XXSP,2013-09-14 19:46:00,
2013-09-14 14:51:00,70.7,36.8,30.06,SSW,202,1.6,1.8,29,0.00,,,0.00,WUHU21623XXSP,2013-09-14 19:51:00,
2013-09-14 14:56:00,70.7,36.8,30.06,SSW,202,1.8,1.8,29,0.00,,,0.00,WUHU21623XXSP,2013-09-14 19:56:00,
2013-09-14 15:01:00,70.7,37.9,30.06,SE,135,0.0,1.8,30,0.00,,,0.00,WUHU21623XXSP,2013-09-14 20:01:00,
2013-09-14 15:06:00,70.7,38.6,30.06,West,270,0.2,1.8,31,0.00,,,0.00,WUHU21623XXSP,2013-09-14 20:06:00,
2013-09-14 15:11:00,70.9,38.0,30.06,SSE,157,0.0,3.8,30,0.00,,,0.00,WUHU21623XXSP,2013-09-14 20:11:00,
2013-09-14 15:16:00,70.7,37.9,30.06,South,180,1.8,3.8,30,0.00,,,0.00,WUHU21623XXSP,2013-09-14 20:16:00,
2013-09-14 15:21:00,70.7,37.9,30.06,SSW,202,1.3,1.8,30,0.00,,,0.00,WUHU21623XXSP,2013-09-14 20:21:00,
2013-09-14 15:26:00,70.5,38.4,30.06,WNW,292,0.0,1.3,31,0.00,,,0.00,WUHU21623XXSP,2013-09-14 20:26:00,
2013-09-14 15:31:00,70.5,38.4,30.06,SSE,157,0.0,0.0,31,0.00,,,0.00,WUHU21623XXSP,2013-09-14 20:31:00,
2013-09-14 15:36:00,70.7,37.9,30.05,SW,225,0.0,0.0,30,0.00,,,0.00,WUHU21623XXSP,2013-09-14 20:36:00,
2013-09-14 15:41:00,71.1,38.2,30.05,South,180,0.0,0.4,30,0.00,,,0.00,WUHU21623XXSP,2013-09-14 20:41:00,
2013-09-14 15:46:00,71.2,37.3,30.04,West,270,1.6,1.6,29,0.00,,,0.00,WUHU21623XXSP,2013-09-14 20:46:00,
2013-09-14 15:51:00,71.4,37.5,30.04,SSE,157,0.0,1.6,29,0.00,,,0.00,WUHU21623XXSP,2013-09-14 20:51:00,
2013-09-14 15:56:00,71.8,37.8,30.04,SE,135,0.0,1.3,29,0.00,,,0.00,WUHU21623XXSP,2013-09-14 20:56:00,
2013-09-14 16:01:00,71.8,37.8,30.04,SE,135,1.6,1.6,29,0.00,,,0.00,WUHU21623XXSP,2013-09-14 21:01:00,
2013-09-14 16:06:00,72.0,37.9,30.04,South,180,0.0,1.6,29,0.00,,,0.00,WUHU21623XXSP,2013-09-14 21:06:00,
2013-09-14 16:11:00,72.0,37.9,30.04,ENE,67,0.0,1.1,29,0.00,,,0.00,WUHU21623XXSP,2013-09-14 21:11:00,
2013-09-14 16:16:00,71.8,37.8,30.04,ESE,112,0.0,1.1,29,0.00,,,0.00,WUHU21623XXSP,2013-09-14 21:16:00,
2013-09-14 16:21:00,71.8,37.8,30.04,SSE,157,0.0,0.0,29,0.00,,,0.00,WUHU21623XXSP,2013-09-14 21:21:00,
2013-09-14 16:26:00,71.8,37.8,30.04,SE,135,0.0,0.0,29,0.00,,,0.00,WUHU21623XXSP,2013-09-14 21:26:00,
2013-09-14 16:31:00,71.6,37.6,30.03,ENE,67,0.0,0.0,29,0.00,,,0.00,WUHU21623XXSP,2013-09-14 21:31:00,
2013-09-14 16:36:00,71.4,38.5,30.03,South,180,0.0,0.0,30,0.00,,,0.00,WUHU21623XXSP,2013-09-14 21:36:00,
2013-09-14 16:41:00,71.1,38.2,30.03,SSE,157,0.0,0.0,30,0.00,,,0.00,WUHU21623XXSP,2013-09-14 21:41:00,
2013-09-14 16:46:00,70.9,38.0,30.03,SSW,202,0.0,2.5,30,0.00,,,0.00,WUHU21623XXSP,2013-09-14 21:46:00,
2013-09-14 16:51:00,71.1,38.9,30.03,SE,135,0.0,2.5,31,0.00,,,0.00,WUHU21623XXSP,2013-09-14 21:51:00,
2013-09-14 16:56:00,71.2,39.1,30.03,SW,225,0.9,0.9,31,0.00,,,0.00,WUHU21623XXSP,2013-09-14 21:56:00,
2013-09-14 17:01:00,71.2,38.3,30.04,SSE,157,0.0,0.9,30,0.00,,,0.00,WUHU21623XXSP,2013-09-14 22:01:00,
2013-09-14 17:06:00,71.2,38.3,30.03,SSW,202,0.0,0.7,30,0.00,,,0.00,WUHU21623XXSP,2013-09-14 22:06:00,
2013-09-14 17:11:00,71.1,38.9,30.03,SSW,202,0.0,0.0,31,0.00,,,0.00,WUHU21623XXSP,2013-09-14 22:11:00,
2013-09-14 17:15:00,71.1,39.6,30.03,SE,135,0.0,2.0,32,0.00,,,0.00,WUHU21623XXSP,2013-09-14 22:15:00,
2013-09-14 17:20:00,71.1,39.6,30.03,South,180,0.0,2.0,32,0.00,,,0.00,WUHU21623XXSP,2013-09-14 22:20:00,
2013-09-14 17:25:00,71.1,39.6,30.03,South,180,0.0,0.0,32,0.00,,,0.00,WUHU21623XXSP,2013-09-14 22:25:00,
2013-09-14 17:30:00,71.2,39.8,30.03,South,180,0.0,0.0,32,0.00,,,0.00,WUHU21623XXSP,2013-09-14 22:30:00,
2013-09-14 17:35:00,71.1,38.9,30.03,South,180,0.0,0.0,31,0.00,,,0.00,WUHU21623XXSP,2013-09-14 22:35:00,
2013-09-14 17:40:00,71.1,38.9,30.03,SW,225,0.0,0.0,31,0.00,,,0.00,WUHU21623XXSP,2013-09-14 22:40:00,
2013-09-14 17:45:00,70.9,38.0,30.03,ESE,112,0.9,1.6,30,0.00,,,0.00,WUHU21623XXSP,2013-09-14 22:45:00,
2013-09-14 17:49:00,70.7,37.9,30.03,SW,225,0.0,1.6,30,0.00,,,0.00,WUHU21623XXSP,2013-09-14 22:49:00,
2013-09-14 17:54:00,70.7,37.9,30.03,SSE,157,0.0,0.0,30,0.00,,,0.00,WUHU21623XXSP,2013-09-14 22:54:00,
2013-09-14 17:59:00,70.5,38.4,30.02,SE,135,0.0,0.0,31,0.00,,,0.00,WUHU21623XXSP,2013-09-14 22:59:00,
2013-09-14 18:04:00,70.5,37.7,30.02,SSW,202,0.0,0.0,30,0.00,,,0.00,WUHU21623XXSP,2013-09-14 23:04:00,
2013-09-14 18:09:00,70.3,38.4,30.02,South,180,0.0,0.0,31,0.00,,,0.00,WUHU21623XXSP,2013-09-14 23:09:00,
2013-09-14 18:14:00,70.2,38.8,30.02,South,180,0.0,0.0,32,0.00,,,0.00,WUHU21623XXSP,2013-09-14 23:14:00,
2013-09-14 18:19:00,70.0,38.7,30.01,SSE,157,0.0,0.4,32,0.00,,,0.00,WUHU21623XXSP,2013-09-14 23:19:00,
2013-09-14 18:24:00,69.8,38.5,30.01,South,180,0.0,0.4,32,0.00,,,0.00,WUHU21623XXSP,2013-09-14 23:24:00,
2013-09-14 18:29:00,69.3,38.8,30.02,South,180,0.0,0.0,33,0.00,,,0.00,WUHU21623XXSP,2013-09-14 23:29:00,
2013-09-14 18:34:00,69.1,38.6,30.01,South,180,0.0,0.0,33,0.00,,,0.00,WUHU21623XXSP,2013-09-14 23:34:00,
2013-09-14 18:39:00,68.9,39.2,30.01,SSW,202,0.0,0.0,34,0.00,,,0.00,WUHU21623XXSP,2013-09-14 23:39:00,
2013-09-14 18:44:00,68.5,39.6,30.01,SSW,202,0.0,0.0,35,0.00,,,0.00,WUHU21623XXSP,2013-09-14 23:44:00,
2013-09-14 18:49:00,68.4,39.4,30.01,SSW,202,0.0,0.0,35,0.00,,,0.00,WUHU21623XXSP,2013-09-14 23:49:00,
2013-09-14 18:54:00,68.2,40.0,30.02,SSW,202,0.0,0.0,36,0.00,,,0.00,WUHU21623XXSP,2013-09-14 23:54:00,
2013-09-14 18:59:00,67.6,39.5,30.01,SSW,202,0.0,0.0,36,0.00,,,0.00,WUHU21623XXSP,2013-09-14 23:59:00,
2013-09-14 19:04:00,67.3,39.2,30.01,SSW,202,0.0,0.0,36,0.00,,,0.00,WUHU21623XXSP,2013-09-15 00:04:00,
2013-09-14 19:09:00,66.9,39.6,30.01,SE,135,0.0,0.0,37,0.00,,,0.00,WUHU21623XXSP,2013-09-15 00:09:00,
2013-09-14 19:14:00,66.6,40.0,30.01,SE,135,0.0,0.0,38,0.00,,,0.00,WUHU21623XXSP,2013-09-15 00:14:00,
2013-09-14 19:19:00,66.4,39.9,30.01,SSE,157,0.0,0.0,38,0.00,,,0.00,WUHU21623XXSP,2013-09-15 00:19:00,
2013-09-14 19:24:00,66.4,39.9,30.01,SSE,157,0.0,0.0,38,0.00,,,0.00,WUHU21623XXSP,2013-09-15 00:24:00,
2013-09-14 19:29:00,65.8,40.1,30.01,SSE,157,0.0,0.0,39,0.00,,,0.00,WUHU21623XXSP,2013-09-15 00:29:00,
2013-09-14 19:34:00,65.7,40.0,30.01,SSE,157,0.0,0.0,39,0.00,,,0.00,WUHU21623XXSP,2013-09-15 00:34:00,
2013-09-14 19:39:00,65.3,39.6,30.02,SSE,157,0.0,0.0,39,0.00,,,0.00,WUHU21623XXSP,2013-09-15 00:39:00,
2013-09-14 19:44:00,65.1,39.5,30.01,SSE,157,0.0,0.0,39,0.00,,,0.00,WUHU21623XXSP,2013-09-15 00:44:00,
2013-09-14 19:49:00,65.1,40.2,30.01,SSE,157,0.0,0.0,40,0.00,,,0.00,WUHU21623XXSP,2013-09-15 00:49:00,
2013-09-14 19:54:00,64.9,40.6,30.01,SSE,157,0.0,0.0,41,0.00,,,0.00,WUHU21623XXSP,2013-09-15 00:54:00,
2013-09-14 19:59:00,64.8,40.5,30.01,SSE,157,0.0,0.0,41,0.00,,,0.00,WUHU21623XXSP,2013-09-15 00:59:00,
2013-09-14 20:04:00,64.6,40.3,30.01,SSE,157,0.0,0.0,41,0.00,,,0.00,WUHU21623XXSP,2013-09-15 01:04:00,
2013-09-14 20:09:00,64.2,40.0,30.01,East,90,0.0,0.0,41,0.00,,,0.00,WUHU21623XXSP,2013-09-15 01:09:00,
2013-09-14 20:14:00,64.0,39.8,30.01,SE,135,0.0,0.0,41,0.00,,,0.00,WUHU21623XXSP,2013-09-15 01:14:00,
2013-09-14 20:19:00,63.9,40.2,30.01,SE,135,0.0,0.0,42,0.00,,,0.00,WUHU21623XXSP,2013-09-15 01:19:00,
2013-09-14 20:24:00,63.5,39.9,30.01,SSW,202,0.0,0.0,42,0.00,,,0.00,WUHU21623XXSP,2013-09-15 01:24:00,
2013-09-14 20:29:00,63.3,39.7,30.01,SSW,202,0.0,0.0,42,0.00,,,0.00,WUHU21623XXSP,2013-09-15 01:29:00,
2013-09-14 20:34:00,63.3,39.7,30.01,SSW,202,0.0,0.0,42,0.00,,,0.00,WUHU21623XXSP,2013-09-15 01:34:00,
2013-09-14 20:39:00,63.0,40.0,30.01,South,180,0.0,0.0,43,0.00,,,0.00,WUHU21623XXSP,2013-09-15 01:39:00,
2013-09-14 20:44:00,63.0,40.6,30.01,South,180,0.0,0.0,44,0.00,,,0.00,WUHU21623XXSP,2013-09-15 01:44:00,
2013-09-14 20:49:00,62.8,40.4,30.01,South,180,0.0,0.0,44,0.00,,,0.00,WUHU21623XXSP,2013-09-15 01:49:00,
2013-09-14 20:54:00,62.4,40.1,30.01,South,180,0.0,0.0,44,0.00,,,0.00,WUHU21623XXSP,2013-09-15 01:54:00,
2013-09-14 20:59:00,62.2,40.5,30.01,South,180,0.0,0.0,45,0.00,,,0.00,WUHU21623XXSP,2013-09-15 01:59:00,
2013-09-14 21:04:00,62.1,40.3,30.01,SSW,202,0.0,0.0,45,0.00,,,0.00,WUHU21623XXSP,2013-09-15 02:04:00,
2013-09-14 21:09:00,61.7,40.0,30.01,South,180,0.0,0.0,45,0.00,,,0.00,WUHU21623XXSP,2013-09-15 02:09:00,
2013-09-14 21:14:00,61.5,39.8,30.01,SSW,202,0.0,0.0,45,0.00,,,0.00,WUHU21623XXSP,2013-09-15 02:14:00,
2013-09-14 21:19:00,61.5,39.8,30.01,SSE,157,0.0,0.0,45,0.00,,,0.00,WUHU21623XXSP,2013-09-15 02:19:00,
2013-09-14 21:24:00,61.0,39.4,30.01,SSW,202,0.0,0.0,45,0.00,,,0.00,WUHU21623XXSP,2013-09-15 02:24:00,
2013-09-14 21:29:00,60.8,39.2,30.01,SE,135,0.0,0.0,45,0.00,,,0.00,WUHU21623XXSP,2013-09-15 02:29:00,
2013-09-14 21:34:00,60.4,39.5,30.01,SSE,157,0.0,0.0,46,0.00,,,0.00,WUHU21623XXSP,2013-09-15 02:34:00,
2013-09-14 21:39:00,60.3,39.3,30.01,South,180,0.0,0.0,46,0.00,,,0.00,WUHU21623XXSP,2013-09-15 02:39:00,
2013-09-14 21:44:00,60.3,39.3,30.01,South,180,0.0,0.0,46,0.00,,,0.00,WUHU21623XXSP,2013-09-15 02:44:00,
2013-09-14 21:49:00,60.3,39.3,30.01,South,180,0.0,0.0,46,0.00,,,0.00,WUHU21623XXSP,2013-09-15 02:49:00,
2013-09-14 21:54:00,60.1,39.1,30.01,South,180,0.0,0.0,46,0.00,,,0.00,WUHU21623XXSP,2013-09-15 02:54:00,
2013-09-14 21:59:00,60.1,39.1,30.01,South,180,0.0,0.0,46,0.00,,,0.00,WUHU21623XXSP,2013-09-15 02:59:00,
2013-09-14 22:04:00,59.9,39.0,30.01,South,180,0.0,0.0,46,0.00,,,0.00,WUHU21623XXSP,2013-09-15 03:04:00,
2013-09-14 22:09:00,59.9,39.0,30.01,SSE,157,0.0,0.0,46,0.00,,,0.00,WUHU21623XXSP,2013-09-15 03:09:00,
2013-09-14 22:14:00,59.5,39.2,30.00,SSE,157,0.0,0.0,47,0.00,,,0.00,WUHU21623XXSP,2013-09-15 03:14:00,
2013-09-14 22:19:00,59.5,39.8,30.00,SSE,157,0.0,0.0,48,0.00,,,0.00,WUHU21623XXSP,2013-09-15 03:19:00,
2013-09-14 22:24:00,59.4,39.6,30.00,SE,135,0.0,0.0,48,0.00,,,0.00,WUHU21623XXSP,2013-09-15 03:24:00,
2013-09-14 22:29:00,59.4,39.6,30.00,South,180,0.0,0.0,48,0.00,,,0.00,WUHU21623XXSP,2013-09-15 03:29:00,
2013-09-14 22:34:00,59.2,39.5,30.00,SSE,157,0.0,0.0,48,0.00,,,0.00,WUHU21623XXSP,2013-09-15 03:34:00,
2013-09-14 22:39:00,59.2,39.5,30.00,South,180,0.0,0.0,48,0.00,,,0.00,WUHU21623XXSP,2013-09-15 03:39:00,
2013-09-14 22:44:00,58.6,39.0,30.00,South,180,0.0,0.0,48,0.00,,,0.00,WUHU21623XXSP,2013-09-15 03:44:00,
2013-09-14 22:49:00,58.6,39.6,30.00,South,180,0.0,0.0,49,0.00,,,0.00,WUHU21623XXSP,2013-09-15 03:49:00,
2013-09-14 22:54:00,58.5,39.4,30.00,SSE,157,0.0,0.0,49,0.00,,,0.00,WUHU21623XXSP,2013-09-15 03:54:00,
2013-09-14 22:59:00,58.3,39.2,30.00,SSE,157,0.0,0.0,49,0.00,,,0.00,WUHU21623XXSP,2013-09-15 03:59:00,
2013-09-14 23:01:00,58.3,39.2,30.00,SSE,157,0.0,0.0,49,0.00,,,0.00,WUHU21623XXSP,2013-09-15 04:01:00,
2013-09-14 23:02:00,58.3,39.2,30.00,SSE,157,0.0,0.0,49,0.00,,,0.00,WUHU21623XXSP,2013-09-15 04:02:00,
2013-09-14 23:07:00,58.3,39.8,30.00,SSE,157,0.0,0.0,50,0.00,,,0.00,WUHU21623XXSP,2013-09-15 04:07:00,
2013-09-14 23:12:00,58.1,39.6,30.00,SSE,157,0.0,0.0,50,0.00,,,0.00,WUHU21623XXSP,2013-09-15 04:12:00,
2013-09-14 23:17:00,58.1,39.6,30.00,SSE,157,0.0,0.0,50,0.00,,,0.00,WUHU21623XXSP,2013-09-15 04:17:00,
2013-09-14 23:22:00,58.1,39.6,29.99,SSE,157,0.0,0.0,50,0.00,,,0.00,WUHU21623XXSP,2013-09-15 04:22:00,
2013-09-14 23:27:00,58.1,39.6,29.99,South,180,0.0,0.0,50,0.00,,,0.00,WUHU21623XXSP,2013-09-15 04:27:00,
2013-09-14 23:32:00,58.3,39.8,29.99,SSE,157,0.0,0.0,50,0.00,,,0.00,WUHU21623XXSP,2013-09-15 04:32:00,
2013-09-14 23:37:00,58.1,39.6,29.99,SSE,157,0.0,0.0,50,0.00,,,0.00,WUHU21623XXSP,2013-09-15 04:37:00,
2013-09-14 23:42:00,58.3,39.8,29.99,SE,135,0.0,0.0,50,0.00,,,0.00,WUHU21623XXSP,2013-09-15 04:42:00,
2013-09-14 23:47:00,58.3,40.3,29.99,South,180,0.0,0.0,51,0.00,,,0.00,WUHU21623XXSP,2013-09-15 04:47:00,
2013-09-14 23:52:00,58.3,40.3,29.99,South,180,0.0,0.0,51,0.00,,,0.00,WUHU21623XXSP,2013-09-15 04:52:00,
2013-09-14 23:57:00,58.1,40.1,29.99,South,180,0.0,0.0,51,0.00,,,0.00,WUHU21623XXSP,2013-09-15 04:57:00,